| time (UTC) | temp F | wind direction | speed MPH | gust MPH | rain 1hr in | rain 24hr in | rain mn in | humidity % | barometer mb |
| 20260905193536 | 77 | 137 | 5.0 | 12.0 | 0.00 | 0.00 | 0.00 | 40 | 1015.6 |
| 20260905193035 | 77 | 157 | 5.0 | 12.0 | 0.00 | 0.00 | 0.00 | 42 | 1015.6 |
| 20260905192534 | 77 | 118 | 5.0 | 12.0 | 0.00 | 0.00 | 0.00 | 42 | 1015.7 |
| 20260905192033 | 76 | 150 | 5.0 | 12.0 | 0.00 | 0.00 | 0.00 | 51 | 1015.8 |
| 20260905191535 | 76 | 190 | 6.0 | 12.0 | 0.00 | 0.00 | 0.00 | 46 | 1015.9 |
| 20260905191035 | 76 | 144 | 8.0 | 12.0 | 0.00 | 0.00 | 0.00 | 48 | 1015.8 |
| 20260905190537 | 76 | 140 | 6.0 | 10.0 | 0.00 | 0.00 | 0.00 | 37 | 1016.0 |
| 20260905190533 | 77 | 142 | 7.0 | 12.0 | 0.00 | 0.00 | 0.00 | 38 | 1015.9 |
| 20260905185532 | 76 | 169 | 6.0 | 10.0 | 0.00 | 0.00 | 0.00 | 42 | 1015.9 |
| 20260905185032 | 76 | 127 | 5.0 | 10.0 | 0.00 | 0.00 | 0.00 | 41 | 1016.0 |
| 20260905184532 | 76 | 90 | 6.0 | 10.0 | 0.00 | 0.00 | 0.00 | 40 | 1016.2 |
| 20260905184033 | 76 | 139 | 5.0 | 12.0 | 0.00 | 0.00 | 0.00 | 48 | 1016.2 |
| 20260905183532 | 76 | 132 | 5.0 | 12.0 | 0.00 | 0.00 | 0.00 | 47 | 1016.0 |
| 20260905183032 | 76 | 139 | 6.0 | 10.0 | 0.00 | 0.00 | 0.00 | 41 | 1016.2 |
| 20260905182533 | 76 | 128 | 6.0 | 10.0 | 0.00 | 0.00 | 0.00 | 38 | 1016.2 |
| 20260905182033 | 76 | 113 | 5.0 | 10.0 | 0.00 | 0.00 | 0.00 | 38 | 1016.2 |
| 20260905181532 | 76 | 153 | 4.0 | 10.0 | 0.00 | 0.00 | 0.00 | 37 | 1016.2 |
| 20260905181030 | 75 | 115 | 4.0 | 8.0 | 0.00 | 0.00 | 0.00 | 33 | 1016.2 |
| 20260905180528 | 75 | 155 | 5.0 | 10.0 | 0.00 | 0.00 | 0.00 | 31 | 1016.3 |
| 20260905180028 | 75 | 111 | 5.0 | 10.0 | 0.00 | 0.00 | 0.00 | 31 | 1016.2 |
| 20260905175528 | 75 | 124 | 5.0 | 9.0 | 0.00 | 0.00 | 0.00 | 36 | 1016.0 |
| 20260905175027 | 74 | 106 | 6.0 | 11.0 | 0.00 | 0.00 | 0.00 | 30 | 1016.0 |
| 20260905174526 | 74 | 123 | 7.0 | 12.0 | 0.00 | 0.00 | 0.00 | 38 | 1016.0 |
| 20260905174027 | 73 | 115 | 8.0 | 14.0 | 0.00 | 0.00 | 0.00 | 41 | 1015.9 |
| 20260905173531 | 72 | 100 | 10.0 | 14.0 | 0.00 | 0.00 | 0.00 | 34 | 1015.8 |
| 20260905173526 | 73 | 94 | 9.0 | 14.0 | 0.00 | 0.00 | 0.00 | 40 | 1015.9 |
| 20260905173133 | 73 | 106 | 9.0 | 14.0 | 0.00 | 0.00 | 0.00 | 36 | 1015.7 |
| 20260905172030 | 73 | 103 | 9.0 | 13.0 | 0.00 | 0.00 | 0.00 | 39 | 1015.7 |
| 20260905172026 | 73 | 119 | 9.0 | 14.0 | 0.00 | 0.00 | 0.00 | 39 | 1015.8 |
| 20260905171633 | 73 | 127 | 9.0 | 12.0 | 0.00 | 0.00 | 0.00 | 36 | 1015.6 |
| 20260905170525 | 74 | 117 | 9.0 | 12.0 | 0.00 | 0.00 | 0.00 | 36 | 1015.5 |
| 20260905170027 | 74 | 109 | 8.0 | 12.0 | 0.00 | 0.00 | 0.00 | 32 | 1015.6 |
| 20260905165520 | 73 | 120 | 8.0 | 13.0 | 0.00 | 0.00 | 0.00 | 31 | 1015.6 |
| 20260905165020 | 73 | 88 | 8.0 | 13.0 | 0.00 | 0.00 | 0.00 | 28 | 1015.5 |
| 20260905164520 | 72 | 94 | 8.0 | 12.0 | 0.00 | 0.00 | 0.00 | 26 | 1015.5 |
| 20260905164020 | 72 | 103 | 9.0 | 12.0 | 0.00 | 0.00 | 0.00 | 30 | 1015.4 |
| 20260905163520 | 72 | 65 | 9.0 | 11.0 | 0.00 | 0.00 | 0.00 | 31 | 1015.4 |
| 20260905163020 | 72 | 71 | 8.0 | 11.0 | 0.00 | 0.00 | 0.00 | 34 | 1015.3 |
| 20260905162519 | 73 | 70 | 7.0 | 10.0 | 0.00 | 0.00 | 0.00 | 35 | 1015.3 |
| 20260905162020 | 72 | 91 | 6.0 | 9.0 | 0.00 | 0.00 | 0.00 | 31 | 1015.2 |
| 20260905161520 | 72 | 55 | 6.0 | 9.0 | 0.00 | 0.00 | 0.00 | 32 | 1015.3 |
| 20260905161020 | 72 | 67 | 5.0 | 9.0 | 0.00 | 0.00 | 0.00 | 28 | 1015.2 |
| 20260905160520 | 72 | 60 | 5.0 | 8.0 | 0.00 | 0.00 | 0.00 | 34 | 1015.2 |
| 20260905160020 | 72 | 97 | 5.0 | 11.0 | 0.00 | 0.00 | 0.00 | 32 | 1015.2 |
| 20260905155520 | 71 | 55 | 6.0 | 11.0 | 0.00 | 0.00 | 0.00 | 34 | 1015.1 |
| 20260905155020 | 71 | 63 | 6.0 | 10.0 | 0.00 | 0.00 | 0.00 | 36 | 1015.1 |
| 20260905154517 | 71 | 60 | 5.0 | 12.0 | 0.00 | 0.00 | 0.00 | 34 | 1015.1 |
| 20260905154019 | 70 | 81 | 5.0 | 12.0 | 0.00 | 0.00 | 0.00 | 45 | 1015.1 |
| 20260905153518 | 70 | 89 | 7.0 | 12.0 | 0.00 | 0.00 | 0.00 | 38 | 1015.0 |
| 20260905153019 | 69 | 74 | 8.0 | 12.0 | 0.00 | 0.00 | 0.00 | 38 | 1015.0 |
| 20260905152518 | 69 | 85 | 7.0 | 10.0 | 0.00 | 0.00 | 0.00 | 40 | 1015.0 |
| 20260905152016 | 69 | 96 | 8.0 | 12.0 | 0.00 | 0.00 | 0.00 | 41 | 1015.0 |
| 20260905151516 | 69 | 94 | 9.0 | 12.0 | 0.00 | 0.00 | 0.00 | 39 | 1015.0 |
| 20260905151024 | 69 | 87 | 9.0 | 12.0 | 0.00 | 0.00 | 0.00 | 37 | 1014.8 |
| 20260905151017 | 69 | 95 | 9.0 | 12.0 | 0.00 | 0.00 | 0.00 | 33 | 1014.9 |
| 20260905150016 | 68 | 82 | 9.0 | 12.0 | 0.00 | 0.00 | 0.00 | 40 | 1014.6 |
| 20260905145516 | 69 | 89 | 9.0 | 12.0 | 0.00 | 0.00 | 0.00 | 40 | 1014.6 |
| 20260905145015 | 68 | 94 | 9.0 | 12.0 | 0.00 | 0.00 | 0.00 | 37 | 1014.5 |
| 20260905144515 | 68 | 85 | 9.0 | 12.0 | 0.00 | 0.00 | 0.00 | 41 | 1014.5 |
| 20260905144014 | 68 | 93 | 10.0 | 12.0 | 0.00 | 0.00 | 0.00 | 38 | 1014.5 |
| 20260905143518 | 67 | 88 | 11.0 | 13.0 | 0.00 | 0.00 | 0.00 | 41 | 1014.4 |
| 20260905143514 | 67 | 88 | 10.0 | 12.0 | 0.00 | 0.00 | 0.00 | 36 | 1014.3 |
| 20260905143122 | 67 | 90 | 10.0 | 14.0 | 0.00 | 0.00 | 0.00 | 38 | 1014.3 |
| 20260905142622 | 66 | 85 | 9.0 | 14.0 | 0.00 | 0.00 | 0.00 | 49 | 1014.4 |
| 20260905142122 | 66 | 88 | 10.0 | 14.0 | 0.00 | 0.00 | 0.00 | 38 | 1014.2 |
| 20260905141512 | 66 | 74 | 10.0 | 14.0 | 0.00 | 0.00 | 0.00 | 47 | 1014.3 |
| 20260905140511 | 65 | 86 | 10.0 | 12.0 | 0.00 | 0.00 | 0.00 | 49 | 1014.2 |
| 20260905140011 | 66 | 75 | 10.0 | 12.0 | 0.00 | 0.00 | 0.00 | 48 | 1014.2 |
| 20260905135511 | 65 | 90 | 8.0 | 12.0 | 0.00 | 0.00 | 0.00 | 44 | 1014.1 |
| 20260905135012 | 65 | 78 | 7.0 | 12.0 | 0.00 | 0.00 | 0.00 | 53 | 1014.1 |
| 20260905134512 | 65 | 79 | 7.0 | 12.0 | 0.00 | 0.00 | 0.00 | 55 | 1014.0 |
| 20260905134011 | 65 | 49 | 7.0 | 12.0 | 0.00 | 0.00 | 0.00 | 63 | 1014.0 |
| 20260905133511 | 66 | 67 | 9.0 | 13.0 | 0.00 | 0.00 | 0.00 | 46 | 1013.9 |
| 20260905133011 | 66 | 76 | 11.0 | 14.0 | 0.00 | 0.00 | 0.00 | 45 | 1013.9 |
| 20260905132511 | 66 | 74 | 11.0 | 14.0 | 0.00 | 0.00 | 0.00 | 37 | 1013.8 |
| 20260905132012 | 65 | 82 | 9.0 | 14.0 | 0.00 | 0.00 | 0.00 | 36 | 1013.7 |
| 20260905131511 | 65 | 71 | 8.0 | 11.0 | 0.00 | 0.00 | 0.00 | 50 | 1013.7 |
| 20260905131011 | 65 | 51 | 8.0 | 12.0 | 0.00 | 0.00 | 0.00 | 53 | 1013.7 |
| 20260905130512 | 66 | 57 | 9.0 | 12.0 | 0.00 | 0.00 | 0.00 | 45 | 1013.5 |
| 20260905130013 | 66 | 74 | 9.0 | 12.0 | 0.00 | 0.00 | 0.00 | 39 | 1013.6 |
| 20260905125511 | 66 | 76 | 9.0 | 12.0 | 0.00 | 0.00 | 0.00 | 41 | 1013.6 |
| 20260905125015 | 65 | 66 | 7.0 | 13.0 | 0.00 | 0.00 | 0.00 | 49 | 1013.7 |
| 20260905125011 | 65 | 92 | 8.0 | 13.0 | 0.00 | 0.00 | 0.00 | 43 | 1013.7 |
| 20260905124011 | 65 | 72 | 6.0 | 10.0 | 0.00 | 0.00 | 0.00 | 56 | 1013.7 |
| 20260905123511 | 65 | 59 | 6.0 | 10.0 | 0.00 | 0.00 | 0.00 | 52 | 1013.7 |
| 20260905123014 | 65 | 57 | 7.0 | 11.0 | 0.00 | 0.00 | 0.00 | 59 | 1013.7 |
| 20260905123010 | 65 | 61 | 7.0 | 11.0 | 0.00 | 0.00 | 0.00 | 49 | 1013.7 |
| 20260905122009 | 65 | 60 | 6.0 | 9.0 | 0.00 | 0.00 | 0.00 | 59 | 1013.7 |
| 20260905121509 | 64 | 63 | 5.0 | 9.0 | 0.00 | 0.00 | 0.00 | 53 | 1013.7 |
| 20260905121009 | 63 | 71 | 4.0 | 9.0 | 0.00 | 0.00 | 0.00 | 58 | 1013.7 |
| 20260905120509 | 63 | 46 | 5.0 | 8.0 | 0.00 | 0.00 | 0.00 | 73 | 1013.7 |
| 20260905120008 | 63 | 35 | 6.0 | 9.0 | 0.00 | 0.00 | 0.00 | 76 | 1013.7 |
| 20260905115509 | 63 | 40 | 6.0 | 9.0 | 0.00 | 0.00 | 0.00 | 72 | 1013.7 |
| 20260905115009 | 63 | 40 | 6.0 | 9.0 | 0.00 | 0.00 | 0.00 | 76 | 1013.7 |
| 20260905114513 | 64 | 37 | 4.0 | 7.0 | 0.00 | 0.00 | 0.00 | 66 | 1013.6 |
| 20260905114509 | 63 | 40 | 5.0 | 8.0 | 0.00 | 0.00 | 0.00 | 75 | 1013.7 |
| 20260905113510 | 65 | 47 | 4.0 | 7.0 | 0.00 | 0.00 | 0.00 | 62 | 1013.7 |
| 20260905113007 | 64 | 82 | 3.0 | 7.0 | 0.00 | 0.00 | 0.00 | 49 | 1013.8 |
| 20260905112506 | 64 | 96 | 3.0 | 7.0 | 0.00 | 0.00 | 0.00 | 59 | 1013.9 |
| 20260905112011 | 64 | 23 | 3.0 | 5.0 | 0.00 | 0.00 | 0.00 | 70 | 1013.8 |
| 20260905112007 | 64 | 74 | 3.0 | 7.0 | 0.00 | 0.00 | 0.00 | 63 | 1013.8 |
| 20260905111007 | 64 | 28 | 4.0 | 5.0 | 0.00 | 0.00 | 0.00 | 61 | 1013.8 |
| 20260905110508 | 63 | 55 | 3.0 | 5.0 | 0.00 | 0.00 | 0.00 | 68 | 1013.8 |
| 20260905110008 | 63 | 37 | 1.0 | 4.0 | 0.00 | 0.00 | 0.00 | 70 | 1013.8 |
| 20260905105507 | 62 | 31 | 1.0 | 5.0 | 0.00 | 0.00 | 0.00 | 73 | 1013.8 |
| 20260905105007 | 62 | 34 | 2.0 | 6.0 | 0.00 | 0.00 | 0.00 | 74 | 1013.9 |
| 20260905104507 | 63 | 32 | 3.0 | 6.0 | 0.00 | 0.00 | 0.00 | 80 | 1013.9 |
| 20260905104010 | 63 | 23 | 3.0 | 6.0 | 0.00 | 0.00 | 0.00 | 78 | 1013.9 |
| 20260905104006 | 63 | 15 | 3.0 | 6.0 | 0.00 | 0.00 | 0.00 | 78 | 1013.9 |
| 20260905103005 | 63 | 33 | 2.0 | 6.0 | 0.00 | 0.00 | 0.00 | 77 | 1013.9 |
| 20260905102511 | 64 | 34 | 1.0 | 5.0 | 0.00 | 0.00 | 0.00 | 67 | 1013.9 |
| 20260905102505 | 64 | 38 | 1.0 | 6.0 | 0.00 | 0.00 | 0.00 | 76 | 1013.9 |
| 20260905101506 | 63 | 44 | 1.0 | 3.0 | 0.00 | 0.00 | 0.00 | 55 | 1013.9 |
| 20260905101005 | 63 | 15 | 1.0 | 6.0 | 0.00 | 0.00 | 0.00 | 75 | 1013.9 |
| 20260905100504 | 63 | 14 | 1.0 | 6.0 | 0.00 | 0.00 | 0.00 | 76 | 1013.9 |
| 20260905100005 | 63 | 14 | 3.0 | 6.0 | 0.00 | 0.00 | 0.00 | 74 | 1013.9 |
| 20260905095503 | 64 | 17 | 2.0 | 6.0 | 0.00 | 0.00 | 0.00 | 77 | 1014.0 |
| 20260905095003 | 64 | 34 | 0.0 | 5.0 | 0.00 | 0.00 | 0.00 | 60 | 1013.9 |
| 20260905094507 | 64 | 54 | 0.0 | 5.0 | 0.00 | 0.00 | 0.00 | 69 | 1013.9 |
| 20260905094503 | 64 | 68 | 1.0 | 5.0 | 0.00 | 0.00 | 0.00 | 61 | 1013.9 |
| 20260905093507 | 64 | 21 | 2.0 | 5.0 | 0.00 | 0.00 | 0.00 | 73 | 1013.9 |
| 20260905093503 | 64 | 43 | 1.0 | 4.0 | 0.00 | 0.00 | 0.00 | 65 | 1014.0 |
| 20260905092503 | 64 | 47 | 3.0 | 5.0 | 0.00 | 0.00 | 0.00 | 78 | 1014.0 |
| 20260905092007 | 64 | 70 | 3.0 | 6.0 | 0.00 | 0.00 | 0.00 | 66 | 1014.0 |
| 20260905092003 | 64 | 60 | 3.0 | 6.0 | 0.00 | 0.00 | 0.00 | 72 | 1014.0 |
| 20260905091003 | 64 | 64 | 5.0 | 6.0 | 0.00 | 0.00 | 0.00 | 64 | 1014.0 |
| 20260905090502 | 64 | 57 | 5.0 | 7.0 | 0.00 | 0.00 | 0.00 | 71 | 1014.1 |
| 20260905090002 | 63 | 48 | 6.0 | 8.0 | 0.00 | 0.00 | 0.00 | 78 | 1014.1 |
| 20260905085505 | 63 | 41 | 7.0 | 9.0 | 0.00 | 0.00 | 0.00 | 81 | 1014.1 |
| 20260905085459 | 63 | 33 | 7.0 | 10.0 | 0.00 | 0.00 | 0.00 | 80 | 1014.1 |
| 20260905084458 | 64 | 50 | 8.0 | 10.0 | 0.00 | 0.00 | 0.00 | 80 | 1014.2 |
| 20260905083957 | 64 | 44 | 7.0 | 10.0 | 0.00 | 0.00 | 0.00 | 80 | 1014.3 |
| 20260905083502 | 64 | 42 | 8.0 | 10.0 | 0.00 | 0.00 | 0.00 | 79 | 1014.3 |
| 20260905083457 | 64 | 46 | 7.0 | 10.0 | 0.00 | 0.00 | 0.00 | 79 | 1014.2 |
| 20260905082457 | 64 | 36 | 8.0 | 10.0 | 0.00 | 0.00 | 0.00 | 78 | 1014.2 |
| 20260905081957 | 65 | 35 | 8.0 | 10.0 | 0.00 | 0.00 | 0.00 | 76 | 1014.2 |
| 20260905081457 | 65 | 30 | 7.0 | 8.0 | 0.00 | 0.00 | 0.00 | 72 | 1014.3 |
| 20260905080957 | 66 | 34 | 6.0 | 8.0 | 0.00 | 0.00 | 0.00 | 69 | 1014.3 |
| 20260905080458 | 66 | 39 | 5.0 | 8.0 | 0.00 | 0.00 | 0.00 | 66 | 1014.4 |
| 20260905075957 | 66 | 39 | 5.0 | 10.0 | 0.00 | 0.00 | 0.00 | 54 | 1014.4 |
| 20260905075455 | 66 | 49 | 6.0 | 10.0 | 0.00 | 0.00 | 0.00 | 54 | 1014.4 |
| 20260905074958 | 65 | 42 | 8.0 | 10.0 | 0.00 | 0.00 | 0.00 | 79 | 1014.3 |
| 20260905074954 | 65 | 41 | 7.0 | 10.0 | 0.00 | 0.00 | 0.00 | 69 | 1014.4 |
| 20260905074558 | 65 | 38 | 8.0 | 10.0 | 0.00 | 0.00 | 0.00 | 76 | 1014.3 |
| 20260905074101 | 65 | 38 | 8.0 | 10.0 | 0.00 | 0.00 | 0.00 | 79 | 1014.3 |
| 20260905072950 | 66 | 41 | 8.0 | 10.0 | 0.00 | 0.00 | 0.00 | 77 | 1014.4 |
| 20260905072451 | 66 | 40 | 8.0 | 9.0 | 0.00 | 0.00 | 0.00 | 75 | 1014.3 |
| 20260905071951 | 66 | 46 | 9.0 | 10.0 | 0.00 | 0.00 | 0.00 | 73 | 1014.4 |
| 20260905071455 | 66 | 44 | 7.0 | 9.0 | 0.00 | 0.00 | 0.00 | 69 | 1014.3 |
| 20260905071451 | 66 | 51 | 8.0 | 10.0 | 0.00 | 0.00 | 0.00 | 71 | 1014.3 |
| 20260905070454 | 67 | 41 | 6.0 | 9.0 | 0.00 | 0.00 | 0.00 | 65 | 1014.3 |
| 20260905070450 | 67 | 44 | 6.0 | 9.0 | 0.00 | 0.00 | 0.00 | 67 | 1014.3 |
| 20260905065448 | 67 | 30 | 6.0 | 9.0 | 0.00 | 0.00 | 0.00 | 63 | 1014.3 |
| 20260905064948 | 67 | 44 | 5.0 | 7.0 | 0.00 | 0.00 | 0.00 | 59 | 1014.2 |
| 20260905064447 | 67 | 59 | 5.0 | 8.0 | 0.00 | 0.00 | 0.00 | 62 | 1014.1 |
| 20260905063947 | 67 | 30 | 5.0 | 8.0 | 0.00 | 0.00 | 0.00 | 58 | 1014.2 |
| 20260905063448 | 67 | 53 | 5.0 | 7.0 | 0.00 | 0.00 | 0.00 | 68 | 1014.1 |
| 20260905062950 | 67 | 49 | 7.0 | 7.0 | 0.00 | 0.00 | 0.00 | 63 | 1014.1 |
| 20260905062946 | 67 | 49 | 6.0 | 7.0 | 0.00 | 0.00 | 0.00 | 64 | 1014.1 |
| 20260905061946 | 67 | 53 | 7.0 | 7.0 | 0.00 | 0.00 | 0.00 | 59 | 1014.2 |
| 20260905061446 | 67 | 55 | 6.0 | 7.0 | 0.00 | 0.00 | 0.00 | 60 | 1014.2 |
| 20260905060946 | 67 | 57 | 6.0 | 7.0 | 0.00 | 0.00 | 0.00 | 64 | 1014.2 |
| 20260905060446 | 67 | 40 | 6.0 | 8.0 | 0.00 | 0.00 | 0.00 | 59 | 1014.2 |
| 20260905055946 | 67 | 39 | 6.0 | 8.0 | 0.00 | 0.00 | 0.00 | 67 | 1014.2 |
| 20260905055444 | 67 | 37 | 6.0 | 8.0 | 0.00 | 0.00 | 0.00 | 68 | 1014.1 |
| 20260905054944 | 67 | 47 | 5.0 | 7.0 | 0.00 | 0.00 | 0.00 | 68 | 1014.2 |
| 20260905054444 | 67 | 44 | 4.0 | 6.0 | 0.00 | 0.00 | 0.00 | 66 | 1014.2 |
| 20260905053943 | 67 | 44 | 3.0 | 6.0 | 0.00 | 0.00 | 0.00 | 66 | 1014.2 |
| 20260905053444 | 67 | 55 | 3.0 | 4.0 | 0.00 | 0.00 | 0.00 | 66 | 1014.2 |
| 20260905052944 | 68 | 55 | 3.0 | 4.0 | 0.00 | 0.00 | 0.00 | 66 | 1014.2 |
| 20260905052444 | 68 | 56 | 3.0 | 4.0 | 0.00 | 0.00 | 0.00 | 65 | 1014.3 |
| 20260905051949 | 68 | 41 | 3.0 | 5.0 | 0.00 | 0.00 | 0.00 | 64 | 1014.3 |
| 20260905051944 | 68 | 55 | 3.0 | 5.0 | 0.00 | 0.00 | 0.00 | 65 | 1014.3 |
| 20260905050943 | 68 | 41 | 3.0 | 6.0 | 0.00 | 0.00 | 0.00 | 61 | 1014.3 |
| 20260905050553 | 68 | 9 | 4.0 | 8.0 | 0.00 | 0.00 | 0.00 | 63 | 1014.2 |
| 20260905050447 | 68 | 13 | 4.0 | 7.0 | 0.00 | 0.00 | 0.00 | 62 | 1014.3 |
| 20260905050441 | 68 | 31 | 4.0 | 6.0 | 0.00 | 0.00 | 0.00 | 62 | 1014.3 |
| 20260905050159 | 68 | 10 | 4.0 | 8.0 | 0.00 | 0.00 | 0.00 | 66 | 1014.2 |
| 20260905044442 | 68 | 11 | 5.0 | 8.0 | 0.00 | 0.00 | 0.00 | 67 | 1014.1 |
| 20260905043942 | 68 | 10 | 6.0 | 8.0 | 0.00 | 0.00 | 0.00 | 68 | 1014.1 |
| 20260905043442 | 68 | 9 | 6.0 | 8.0 | 0.00 | 0.00 | 0.00 | 69 | 1014.0 |
| 20260905042942 | 68 | 9 | 5.0 | 8.0 | 0.00 | 0.00 | 0.00 | 70 | 1014.0 |
| 20260905042442 | 67 | 355 | 3.0 | 8.0 | 0.00 | 0.00 | 0.00 | 71 | 1013.9 |
| 20260905041942 | 67 | 355 | 2.0 | 4.0 | 0.00 | 0.00 | 0.00 | 71 | 1013.9 |
| 20260905041442 | 67 | 5 | 3.0 | 6.0 | 0.00 | 0.00 | 0.00 | 71 | 1014.0 |
| 20260905040946 | 68 | 5 | 6.0 | 8.0 | 0.00 | 0.00 | 0.00 | 71 | 1013.8 |
| 20260905040942 | 68 | 5 | 5.0 | 8.0 | 0.00 | 0.00 | 0.00 | 72 | 1013.9 |
| 20260905035946 | 68 | 0 | 6.0 | 8.0 | 0.00 | 0.00 | 0.00 | 71 | 1013.7 |
| 20260905035942 | 68 | 355 | 6.0 | 8.0 | 0.00 | 0.00 | 0.00 | 71 | 1013.8 |
| 20260905034942 | 68 | 0 | 5.0 | 8.0 | 0.00 | 0.00 | 0.00 | 70 | 1013.7 |
| 20260905034442 | 68 | 355 | 5.0 | 8.0 | 0.00 | 0.00 | 0.00 | 70 | 1013.7 |
| 20260905033943 | 68 | 336 | 6.0 | 8.0 | 0.00 | 0.00 | 0.00 | 69 | 1013.6 |
| 20260905033440 | 68 | 349 | 6.0 | 8.0 | 0.00 | 0.00 | 0.00 | 67 | 1013.5 |
| 20260905032940 | 69 | 355 | 5.0 | 8.0 | 0.00 | 0.00 | 0.00 | 67 | 1013.5 |
| 20260905032440 | 69 | 355 | 5.0 | 9.0 | 0.00 | 0.00 | 0.00 | 66 | 1013.4 |
| 20260905031939 | 69 | 5 | 6.0 | 9.0 | 0.00 | 0.00 | 0.00 | 64 | 1013.5 |
| 20260905031437 | 69 | 5 | 7.0 | 9.0 | 0.00 | 0.00 | 0.00 | 66 | 1013.2 |
| 20260905030945 | 68 | 346 | 5.0 | 9.0 | 0.00 | 0.00 | 0.00 | 67 | 1013.1 |
| 20260905030939 | 68 | 355 | 7.0 | 9.0 | 0.00 | 0.00 | 0.00 | 68 | 1013.2 |
| 20260905025936 | 68 | 344 | 4.0 | 6.0 | 0.00 | 0.00 | 0.00 | 67 | 1013.1 |
| 20260905025433 | 68 | 348 | 4.0 | 5.0 | 0.00 | 0.00 | 0.00 | 67 | 1013.1 |
| 20260905024933 | 68 | 334 | 4.0 | 7.0 | 0.00 | 0.00 | 0.00 | 68 | 1013.2 |
| 20260905024434 | 68 | 326 | 3.0 | 7.0 | 0.00 | 0.00 | 0.00 | 68 | 1013.1 |
| 20260905023933 | 68 | 335 | 3.0 | 5.0 | 0.00 | 0.00 | 0.00 | 69 | 1013.2 |
| 20260905023433 | 68 | 314 | 2.0 | 4.0 | 0.00 | 0.00 | 0.00 | 68 | 1013.1 |
| 20260905022934 | 69 | 317 | 1.0 | 3.0 | 0.00 | 0.00 | 0.00 | 65 | 1013.1 |
| 20260905022437 | 69 | 284 | 0.0 | 1.0 | 0.00 | 0.00 | 0.00 | 63 | 1013.2 |
| 20260905022433 | 69 | 286 | 0.0 | 2.0 | 0.00 | 0.00 | 0.00 | 65 | 1013.2 |
| 20260905021434 | 70 | 284 | 0.0 | 2.0 | 0.00 | 0.00 | 0.00 | 62 | 1013.2 |
| 20260905020933 | 70 | 284 | 3.0 | 7.0 | 0.00 | 0.00 | 0.00 | 62 | 1013.4 |
| 20260905020434 | 70 | 283 | 5.0 | 8.0 | 0.00 | 0.00 | 0.00 | 63 | 1013.4 |
| 20260905015933 | 70 | 277 | 4.0 | 8.0 | 0.00 | 0.00 | 0.00 | 62 | 1013.4 |
| 20260905015433 | 71 | 274 | 1.0 | 6.0 | 0.00 | 0.00 | 0.00 | 62 | 1013.4 |
| 20260905014933 | 71 | 293 | 0.0 | 3.0 | 0.00 | 0.00 | 0.00 | 62 | 1013.4 |
| 20260905014433 | 72 | 301 | 1.0 | 3.0 | 0.00 | 0.00 | 0.00 | 62 | 1013.6 |
| 20260905013934 | 72 | 97 | 0.0 | 3.0 | 0.00 | 0.00 | 0.00 | 64 | 1013.5 |
| 20260905013434 | 73 | 315 | 1.0 | 3.0 | 0.00 | 0.00 | 0.00 | 55 | 1013.4 |
| 20260905012933 | 72 | 344 | 1.0 | 3.0 | 0.00 | 0.00 | 0.00 | 55 | 1013.5 |
| 20260905012433 | 73 | 209 | 1.0 | 5.0 | 0.00 | 0.00 | 0.00 | 62 | 1013.5 |
| 20260905011935 | 73 | 178 | 1.0 | 5.0 | 0.00 | 0.00 | 0.00 | 65 | 1013.5 |
| 20260905011433 | 72 | 259 | 1.0 | 4.0 | 0.00 | 0.00 | 0.00 | 40 | 1013.6 |
| 20260905010933 | 71 | 259 | 2.0 | 4.0 | 0.00 | 0.00 | 0.00 | 41 | 1013.7 |
| 20260905010433 | 71 | 250 | 3.0 | 5.0 | 0.00 | 0.00 | 0.00 | 56 | 1013.6 |
| 20260905005938 | 73 | 202 | 3.0 | 5.0 | 0.00 | 0.00 | 0.00 | 63 | 1013.7 |
| 20260905005934 | 72 | 201 | 3.0 | 5.0 | 0.00 | 0.00 | 0.00 | 60 | 1013.7 |
| 20260905005540 | 73 | 183 | 2.0 | 5.0 | 0.00 | 0.00 | 0.00 | 63 | 1013.6 |
| 20260905004433 | 73 | 171 | 1.0 | 6.0 | 0.00 | 0.00 | 0.00 | 55 | 1013.6 |
| 20260905003933 | 73 | 152 | 1.0 | 6.0 | 0.00 | 0.00 | 0.00 | 43 | 1013.6 |
| 20260905003434 | 73 | 184 | 2.0 | 6.0 | 0.00 | 0.00 | 0.00 | 55 | 1013.6 |
| 20260905002937 | 72 | 227 | 2.0 | 8.0 | 0.00 | 0.00 | 0.00 | 49 | 1013.6 |
| 20260905002933 | 73 | 219 | 2.0 | 6.0 | 0.00 | 0.00 | 0.00 | 49 | 1013.6 |
| 20260905001933 | 71 | 219 | 3.0 | 8.0 | 0.00 | 0.00 | 0.00 | 58 | 1013.7 |
| 20260905001434 | 71 | 211 | 4.0 | 8.0 | 0.00 | 0.00 | 0.00 | 57 | 1013.6 |
| 20260905000933 | 72 | 199 | 5.0 | 8.0 | 0.00 | 0.00 | 0.00 | 70 | 1013.7 |
| 20260905000433 | 73 | 202 | 4.0 | 7.0 | 0.00 | 0.00 | 0.00 | 65 | 1013.7 |
| 20260904235933 | 73 | 153 | 3.0 | 6.0 | 0.00 | 0.00 | 0.00 | 43 | 1013.7 |
| 20260904235433 | 72 | 155 | 2.0 | 5.0 | 0.00 | 0.00 | 0.00 | 34 | 1013.6 |
| 20260904234937 | 71 | 220 | 4.0 | 8.0 | 0.00 | 0.00 | 0.00 | 65 | 1013.7 |
| 20260904234931 | 72 | 140 | 2.0 | 7.0 | 0.00 | 0.00 | 0.00 | 51 | 1013.6 |
| 20260904233931 | 71 | 171 | 4.0 | 8.0 | 0.00 | 0.00 | 0.00 | 70 | 1013.8 |
| 20260904233431 | 71 | 185 | 4.0 | 7.0 | 0.00 | 0.00 | 0.00 | 70 | 1013.8 |
| 20260904232931 | 70 | 148 | 4.0 | 8.0 | 0.00 | 0.00 | 0.00 | 59 | 1013.7 |
| 20260904232431 | 70 | 231 | 5.0 | 9.0 | 0.00 | 0.00 | 0.00 | 66 | 1013.7 |
| 20260904231929 | 70 | 190 | 6.0 | 11.0 | 0.00 | 0.00 | 0.00 | 71 | 1013.7 |
| 20260904231429 | 70 | 158 | 7.0 | 12.0 | 0.00 | 0.00 | 0.00 | 67 | 1013.7 |
| 20260904230929 | 71 | 171 | 6.0 | 12.0 | 0.00 | 0.00 | 0.00 | 64 | 1013.7 |
| 20260904230434 | 69 | 163 | 6.0 | 10.0 | 0.00 | 0.00 | 0.00 | 64 | 1013.8 |
| 20260904230429 | 71 | 173 | 6.0 | 10.0 | 0.00 | 0.00 | 0.00 | 68 | 1013.7 |
| 20260904225428 | 69 | 162 | 6.0 | 10.0 | 0.00 | 0.00 | 0.00 | 65 | 1013.8 |
| 20260904224929 | 69 | 171 | 7.0 | 10.0 | 0.00 | 0.00 | 0.00 | 65 | 1013.8 |
| 20260904224429 | 69 | 164 | 7.0 | 10.0 | 0.00 | 0.00 | 0.00 | 74 | 1013.9 |
| 20260904223929 | 69 | 161 | 7.0 | 12.0 | 0.00 | 0.00 | 0.00 | 69 | 1013.9 |
| 20260904223428 | 69 | 179 | 8.0 | 12.0 | 0.00 | 0.00 | 0.00 | 68 | 1013.9 |
| 20260904222931 | 69 | 163 | 7.0 | 12.0 | 0.00 | 0.00 | 0.00 | 64 | 1013.9 |
| 20260904222927 | 69 | 178 | 8.0 | 11.0 | 0.00 | 0.00 | 0.00 | 72 | 1013.9 |
| 20260904221926 | 68 | 157 | 8.0 | 12.0 | 0.00 | 0.00 | 0.00 | 63 | 1013.9 |
| 20260904221427 | 68 | 161 | 8.0 | 12.0 | 0.00 | 0.00 | 0.00 | 69 | 1013.9 |
| 20260904220927 | 68 | 158 | 8.0 | 12.0 | 0.00 | 0.00 | 0.00 | 66 | 1013.9 |
| 20260904220426 | 68 | 163 | 9.0 | 14.0 | 0.00 | 0.00 | 0.00 | 76 | 1013.8 |
| 20260904215927 | 69 | 155 | 9.0 | 15.0 | 0.00 | 0.00 | 0.00 | 78 | 1013.9 |
| 20260904215431 | 69 | 189 | 7.0 | 13.0 | 0.00 | 0.00 | 0.00 | 77 | 1013.9 |
| 20260904215427 | 70 | 159 | 8.0 | 15.0 | 0.00 | 0.00 | 0.00 | 76 | 1013.9 |
| 20260904214427 | 69 | 189 | 7.0 | 11.0 | 0.00 | 0.00 | 0.00 | 74 | 1014.1 |
| 20260904213927 | 68 | 141 | 7.0 | 12.0 | 0.00 | 0.00 | 0.00 | 74 | 1014.1 |
| 20260904213426 | 68 | 175 | 7.0 | 12.0 | 0.00 | 0.00 | 0.00 | 76 | 1014.0 |
| 20260904212927 | 68 | 145 | 8.0 | 13.0 | 0.00 | 0.00 | 0.00 | 77 | 1014.0 |
| 20260904212427 | 67 | 144 | 8.0 | 13.0 | 0.00 | 0.00 | 0.00 | 77 | 1014.1 |
| 20260904211926 | 67 | 151 | 7.0 | 12.0 | 0.00 | 0.00 | 0.00 | 78 | 1014.0 |
| 20260904211427 | 67 | 185 | 7.0 | 13.0 | 0.00 | 0.00 | 0.00 | 79 | 1014.1 |
| 20260904210929 | 69 | 182 | 8.0 | 12.0 | 0.00 | 0.00 | 0.00 | 75 | 1014.0 |
| 20260904210925 | 68 | 166 | 8.0 | 13.0 | 0.00 | 0.00 | 0.00 | 76 | 1014.2 |
| 20260904205924 | 70 | 163 | 7.0 | 12.0 | 0.00 | 0.00 | 0.00 | 75 | 1014.0 |
| 20260904205424 | 70 | 132 | 7.0 | 11.0 | 0.00 | 0.00 | 0.00 | 75 | 1014.0 |
| 20260904204925 | 70 | 157 | 7.0 | 11.0 | 0.00 | 0.00 | 0.00 | 74 | 1013.9 |
| 20260904204425 | 70 | 142 | 5.0 | 9.0 | 0.00 | 0.00 | 0.00 | 72 | 1014.0 |
| 20260904203925 | 70 | 151 | 5.0 | 9.0 | 0.00 | 0.00 | 0.00 | 72 | 1013.9 |
| 20260904203423 | 70 | 136 | 5.0 | 9.0 | 0.00 | 0.00 | 0.00 | 73 | 1014.0 |
| 20260904202923 | 70 | 183 | 6.0 | 10.0 | 0.00 | 0.00 | 0.00 | 73 | 1014.1 |
| 20260904202423 | 70 | 143 | 7.0 | 10.0 | 0.00 | 0.00 | 0.00 | 72 | 1014.1 |
| 20260904201923 | 70 | 144 | 6.0 | 10.0 | 0.00 | 0.00 | 0.00 | 73 | 1014.1 |
| 20260904201427 | 69 | 171 | 6.0 | 10.0 | 0.00 | 0.00 | 0.00 | 74 | 1014.2 |
| 20260904201423 | 70 | 136 | 5.0 | 10.0 | 0.00 | 0.00 | 0.00 | 72 | 1014.2 |
| 20260904200427 | 69 | 138 | 5.0 | 9.0 | 0.00 | 0.00 | 0.00 | 74 | 1014.1 |
| 20260904200423 | 68 | 134 | 6.0 | 9.0 | 0.00 | 0.00 | 0.00 | 73 | 1014.2 |
| 20260904195423 | 68 | 154 | 5.0 | 10.0 | 0.00 | 0.00 | 0.00 | 75 | 1014.3 |
| 20260904194922 | 68 | 126 | 6.0 | 12.0 | 0.00 | 0.00 | 0.00 | 75 | 1014.3 |
| 20260904194422 | 67 | 119 | 6.0 | 12.0 | 0.00 | 0.00 | 0.00 | 76 | 1014.4 |
| 20260904193923 | 67 | 165 | 7.0 | 10.0 | 0.00 | 0.00 | 0.00 | 76 | 1014.4 |